ROMMA est une association bénévole à but non lucratif. Votre soutien est indispensable : ADHERER à ROMMA ou FAIRE un DON

Val-d'Arly - (73, Savoie)

Beaufortain (2050 m)   Longitude: 06° 35' 21" E   Latitude: 45° 46' 53" N Station romma n°118
 

Détail journalier du     <<     >>

Température Humidité Vent Dir Rafale Dir. rafale Ensol.
Heure (°C) (%) (km/h) (km/h) (min)
01:00 -1.3969---15---0
02:00 -1.39613---19---0
03:00 -1.19612---19---0
04:00 -1.09615---19---0
05:00 -1.1969---18---0
06:00 -1.49615---23---0
07:00 -1.09617---31---0
08:00 -0.99714---23---0
09:00 0.19721---34---0
10:00 0.29718---27---0
11:00 0.09717---26---0
12:00 0.09712---26---0
13:00 0.19700---0
14:00 0.2971---16---0
15:00 0.29721---52---0
16:00 0.89733---66---0
17:00 0.59736---66---0
18:00 0.39731---50---0
19:00 0.39733---42---0
20:00 0.29724---39---0
21:00 0.19719---29---0
22:00 -0.19817---31---0
23:00 -0.39815---31---0
minuit -0.69717---31---0

Graphique du 04-11-2019

 

Serveur OMMA